Regional Weather Roundup
Issued by NWS

Home | Current Version | Previous Version | Graphics & Text | Print | Product List | Glossary On
Versions: 1 2 3 4 5 6 7 8 9 10 11 12 13 14 15 16 17 18 19 20 21 22 23 24 25 26 27 28 29 30 31 32 33 34 35 36 37 38 39 40 41 42 43 44 45 46 47 48 49 50
000
ASUS43 KMPX 301701
RWRMN
WEATHER ROUNDUP FOR MINNESOTA
NATIONAL WEATHER SERVICE TWIN CITIES/CHANHASSEN MN
1200 PM CDT MON MAY 30 2016


NOTE: "FAIR" INDICATES FEW OR NO CLOUDS BELOW 12,000 FEET WITH NO
SIGNIFICANT WEATHER AND/OR OBSTRUCTIONS TO VISIBILITY. N/A MEANS
CURRENT SKY AND/OR WEATHER CONDITIONS ARE NOT AVAILABLE.

MNZ060>063-068>070-301800-
   Twin Cities Metro

CITY           SKY/WX    TMP DP  RH WIND       PRES   REMARKS
TWIN CITIES    PTSUNNY   79  51  37 S10       30.00S
ST PAUL        SUNNY     79  58  48 S9        29.99S
CRYSTAL        SUNNY     79  51  37 SW7       29.98S
EDEN PRAIRIE   SUNNY     79  54  41 S10       29.99R
SOUTH ST PAUL  SUNNY     79  55  44 S8        30.00R
LAKE ELMO      FAIR      77  57  50 S6        30.01S
$$
MNZ001>005-007-008-013>017-022>024-027-028-301800-
   Northwest Minnesota

CITY           SKY/WX    TMP DP  RH WIND       PRES   REMARKS
BEMIDJI        MOSUNNY   77  42  28 NW5       29.95S
HALLOCK        SUNNY     75  52  43 S7        29.90S
ROSEAU         SUNNY     72  55  56 CALM      29.93F
WARROAD        SUNNY     64  57  77 NE9       29.95F
THIEF RVR FALL PTSUNNY   72  46  40 SE6       29.94F
CROOKSTON      CLOUDY    73  57  56 SE9       29.91S
FOSSTON        SUNNY     75  54  46 S3        29.95S
DETROIT LAKES  SUNNY     77  50  38 W10       29.95F
MOORHEAD       SUNNY     79  52  38 W3        29.91F
PARK RAPIDS    MOSUNNY   79  51  37 SW8       29.95S
MAHNOMEN       FAIR      75  56  51 SW8       29.94S
$$
MNZ006-009>011-018-025>026-301800-
   North Central Minnesota

CITY           SKY/WX    TMP DP  RH WIND       PRES   REMARKS
BAUDETTE       SUNNY     73  52  47 N5        29.95S
FLAG ISLAND    SUNNY     64  54  68 NE5       29.94S
INTL FALLS     SUNNY     72  55  55 N8        29.95S
WASKISH        SUNNY     73  48  40 SW3       29.95S
BIG FORK       SUNNY     75  41  29 SW6       29.96S
LONGVILLE      MOSUNNY   75  45  33 SW5       29.96F
GRAND RAPIDS   SUNNY     75  46  35 SW9       29.98S
CRANE LAKE     SUNNY     68  52  56 NW7       29.98R
ORR            SUNNY     72  46  40 NW8       29.94S
COOK           MOSUNNY   73  46  38 W9        29.97S
WALKER         CLOUDY    74  42  31 SW6       29.96S
$$
MNZ012-019>021-037-301800-
   Northeast Minnesota

CITY           SKY/WX    TMP DP  RH WIND       PRES   REMARKS
DULUTH         MOSUNNY   77  45  32 W16       29.97S
ELY            MOSUNNY   70  48  46 W12G21    29.96R
HIBBING        SUNNY     73  42  32 W12       29.97S
EVELETH        MOSUNNY   72  41  33 W10G17    29.98S
DULUTH HARBOR  SUNNY     77  48  36 W5        29.96S
TWO HARBORS      N/A     79  54  41 W8        29.94S
SILVER BAY     MOSUNNY   77  43  29 W8G18     29.94S
GRAND MARAIS     N/A     63  45  51 MISG      29.91S
G MARAIS ARPRT SUNNY     66  46  48 W10G25    29.95R
$$
MNZ029>031-032-039>041-046>048-054>057-064-301800-
   West Central Minnesota

CITY           SKY/WX    TMP DP  RH WIND       PRES   REMARKS
FERGUS FALLS   SUNNY     79  48  34 S7        29.90S
WHEATON        SUNNY     84  46  26 S7        29.92F
MORRIS         SUNNY     79  54  41 S15       29.93F
ALEXANDRIA     SUNNY     77  50  38 S9        29.98S
ELBOW LAKE     FAIR      78  55  44 E10       29.95F
WADENA         SUNNY     77  50  38 CALM      29.95F
GLENWOOD       SUNNY     79  52  38 SE9       29.98S
APPLETON       SUNNY     81  50  34 S12       29.94F
BENSON         MOSUNNY   79  50  36 S12       29.96S
ORTONVILLE     SUNNY     79  52  38 S14       29.93F
MADISON        SUNNY     81  50  34 S15G21    29.95S
WILLMAR        FAIR      75  57  53 S3        29.99S
$$
MNZ033>034-036-042>043-049>051-058-059-301800-
   Central Minnesota

CITY           SKY/WX    TMP DP  RH WIND       PRES   REMARKS
ST CLOUD       SUNNY     80  51  36 SW8       29.97F
SAUK CENTRE    FAIR      77  52  41 CALM      29.97F
PAYNESVILLE    SUNNY     77  49  37 SE5       29.99S
AITKIN         SUNNY     81  37  21 SW8       29.96S
PINE RIVER     SUNNY     77  52  41 S5        29.99S
BRAINERD       SUNNY     76  47  35 CALM      29.97S
STAPLES        SUNNY     79  48  34 CALM      29.96F
LONG PRAIRIE   FAIR      75  52  43 S7        29.98S
LITTLE FALLS   SUNNY     77  45  31 NW6       29.97F
LITCHFIELD     CLOUDY    77  55  47 SE5       30.00S
BUFFALO        MOSUNNY   76  53  45 W3        30.01R
MAPLE LAKE     SUNNY     77  58  52 S3        30.01R
HUTCHINSON     MOSUNNY   78  60  53 SE7       30.01R
$$
MNZ037-044-045-052-053-301800-
   East Central Minnesota

CITY           SKY/WX    TMP DP  RH WIND       PRES   REMARKS
PRINCETON      CLOUDY    81  52  36 S5        29.98S
MORA           SUNNY     75  46  35 W5        29.99F
CAMBRIDGE        N/A     81  57  44 SE6       29.96F
RUSH CITY      SUNNY     78  50  38 CALM      29.98F
MOOSE LAKE     MOSUNNY   77  48  36 SW8       29.96S
HINCKLEY       FAIR      77  52  41 SW6       29.98S
CLOQUET        SUNNY     75  41  29 W8        29.97F
MCGREGOR       SUNNY     77  45  31 NW5       29.98S
$$
MNZ071>073-080-081-089-090-097-098-301800-
   Southwest Minnesota

CITY           SKY/WX    TMP DP  RH WIND       PRES   REMARKS
MONTEVIDEO     MOSUNNY   79  55  44 SW12      29.98S
GRANITE FALLS  PTSUNNY   79  57  47 S10       29.98F
CANBY          SUNNY     82  55  38 S9G16     29.96F
MARSHALL       SUNNY     79  53  40 S16       29.96F
REDWOOD FALLS  MOSUNNY   78  50  37 S15       29.97F
OLIVIA         PTSUNNY   77  54  44 S10       29.98S
PIPESTONE      SUNNY     73  54  49 S14       29.99F
WINDOM         SUNNY     79  50  36 CALM      30.00F
WORTHINGTON    SUNNY     75  56  51 S14G21    30.00F
JACKSON        SUNNY     77  48  36 SE14      30.00F
TRACY          SUNNY     78  55  44 S10G20    29.98F
SLAYTON        MOSUNNY   76  51  40 S15       30.00F
$$
MNZ065>067-074>077-082>085-091>093-301800-
   South Central Minnesota

CITY           SKY/WX    TMP DP  RH WIND       PRES   REMARKS
MANKATO        MOSUNNY   79  52  38 S12       30.00S
NEW ULM        SUNNY     77  52  41 S13       29.99F
FAIRMONT       SUNNY     75  52  43 SE14      29.99F
GLENCOE        SUNNY     77  59  53 S7        30.00R
FARIBAULT      SUNNY     77  57  50 S7        30.02S
OWATONNA       SUNNY     79  50  36 S13       30.01F
WASECA         SUNNY     77  52  41 S10G20    30.02F
ALBERT LEA     SUNNY     79  54  41 S9        30.01F
$$
MNZ078>079-086>088-094>096-301800-
   Southeast Minnesota

CITY           SKY/WX    TMP DP  RH WIND       PRES   REMARKS
ROCHESTER      SUNNY     78  54  43 SE12      30.03F
RED WING       SUNNY     79  50  36 S8        30.00S
STANTON        SUNNY     78  55  45 S8        30.00S
DODGE CENTER   SUNNY     77  46  33 SW8       30.03S
WINONA         SUNNY     79  52  38 S3        30.02F
AUSTIN         SUNNY     75  54  46 S9        30.02F
PRESTON        CLOUDY    75  50  40 S9        30.05F
$$
ABBREVIATIONS USED IN REMARKS
   TC - TEMPERATURES IN CELSIUS
  WCI - WIND CHILL INDEX
   HX - HEAT INDEX
  VSB - VISIBILITY
$$




USA.gov is the U.S. government's official web portal to all federal, state and local government web resources and services.